K0HYD Weather Reports


Display with metric or nautical units.
time (UTC)temp
F
wind
direction
speed
MPH
gust
MPH
rain 1hr
in
rain 24hr
in
rain mn
in
humidity
%
barometer
mb
20171019213753 79 225 2.0 17.0 0.00 0.00 0.00 34 1012.5
20171019212253 79 193 6.0 8.0 0.00 0.00 0.00 39 1012.5
20171019210752 78 148 2.0 13.0 0.00 0.00 0.00 42 1012.5
20171019205252 79 136 4.0 11.0 0.00 0.00 0.00 39 1012.7
20171019203753 79 152 4.0 9.0 0.00 0.00 0.00 40 1012.7
20171019202252 79 160 4.0 9.0 0.00 0.00 0.00 42 1012.8
20171019200753 79 239 6.0 12.0 0.00 0.00 0.00 39 1012.8
20171019195252 79 190 4.0 9.0 0.00 0.00 0.00 40 1012.9
20171019193752 79 206 3.0 12.0 0.00 0.00 0.00 42 1013.1
20171019192253 78 163 2.0 9.0 0.00 0.00 0.00 42 1013.3
20171019190753 78 153 4.0 10.0 0.00 0.00 0.00 44 1013.6
20171019185253 77 233 3.0 9.0 0.00 0.00 0.00 48 1013.8
20171019183753 76 221 3.0 10.0 0.00 0.00 0.00 47 1014.0
20171019182253 76 229 5.0 10.0 0.00 0.00 0.00 49 1014.3
20171019180753 75 232 5.0 8.0 0.00 0.00 0.00 49 1014.5
20171019175255 74 193 4.0 8.0 0.00 0.00 0.00 50 1014.7
20171019173753 74 256 3.0 9.0 0.00 0.00 0.00 49 1015.0
20171019172253 73 206 4.0 8.0 0.00 0.00 0.00 52 1015.1
20171019170753 72 153 2.0 7.0 0.00 0.00 0.00 54 1015.2
20171019165253 70 158 3.0 8.0 0.00 0.00 0.00 54 1015.2
20171019163753 69 212 6.0 11.0 0.00 0.00 0.00 56 1015.3
20171019162253 68 215 5.0 9.0 0.00 0.00 0.00 57 1015.3
20171019160754 67 200 5.0 10.0 0.00 0.00 0.00 58 1015.4
20171019155254 66 235 3.0 8.0 0.00 0.00 0.00 62 1015.4
20171019153753 65 190 3.0 8.0 0.00 0.00 0.00 64 1015.3
20171019152253 63 131 3.0 6.0 0.00 0.00 0.00 66 1015.4
20171019150753 61 176 1.0 8.0 0.00 0.00 0.00 71 1015.4
20171019145253 60 191 0.0 7.0 0.00 0.00 0.00 72 1015.4
20171019143755 58 138 2.0 6.0 0.00 0.00 0.00 75 1015.4
20171019142253 57 211 2.0 5.0 0.00 0.00 0.00 77 1015.2
20171019140753 56 143 1.0 4.0 0.00 0.00 0.00 79 1015.1
20171019135254 54 203 3.0 4.0 0.00 0.00 0.00 81 1014.9
20171019133754 53 222 2.0 3.0 0.00 0.00 0.00 84 1014.6
20171019132254 52 133 1.0 4.0 0.00 0.00 0.00 85 1014.6
20171019130753 51 141 0.0 2.0 0.00 0.00 0.00 86 1014.6
20171019125254 51 136 0.0 2.0 0.00 0.00 0.00 86 1014.5
20171019123754 51 155 0.0 2.0 0.00 0.00 0.00 86 1014.5
20171019122254 51 167 0.0 2.0 0.00 0.00 0.00 87 1014.4
20171019120754 51 149 0.0 2.0 0.00 0.00 0.00 87 1014.3
20171019115254 52 145 0.0 2.0 0.00 0.00 0.00 87 1014.2
20171019113754 52 136 0.0 2.0 0.00 0.00 0.00 87 1014.1
20171019112254 52 134 1.0 2.0 0.00 0.00 0.00 87 1014.2
20171019110754 52 158 0.0 1.0 0.00 0.00 0.00 87 1014.0
20171019105254 52 142 0.0 1.0 0.00 0.00 0.00 86 1013.9
20171019103754 52 167 0.0 1.0 0.00 0.00 0.00 86 1013.9
20171019102254 52 191 0.0 2.0 0.00 0.00 0.00 86 1013.9
20171019100754 53 155 0.0 2.0 0.00 0.00 0.00 85 1013.8
20171019095254 53 155 0.0 2.0 0.00 0.00 0.00 85 1013.8
20171019093754 53 122 0.0 2.0 0.00 0.00 0.00 85 1013.6
20171019092254 54 194 0.0 3.0 0.00 0.00 0.00 84 1013.6
20171019090754 54 165 0.0 4.0 0.00 0.00 0.00 84 1013.8
20171019085255 54 149 0.0 3.0 0.00 0.00 0.00 84 1013.8
20171019083755 54 152 0.0 2.0 0.00 0.00 0.00 84 1013.9
20171019082254 54 165 0.0 2.0 0.00 0.00 0.00 85 1013.9
20171019080754 54 145 0.0 1.0 0.00 0.00 0.00 85 1013.8
20171019075255 54 132 0.0 1.0 0.00 0.00 0.00 84 1014.0
20171019073754 54 133 0.0 1.0 0.00 0.00 0.00 83 1013.7
20171019072255 55 222 0.0 2.0 0.00 0.00 0.00 83 1013.7
20171019070755 55 208 0.0 2.0 0.00 0.00 0.00 83 1013.7
20171019065255 54 215 0.0 2.0 0.00 0.00 0.00 84 1013.6
20171019063755 54 216 0.0 1.0 0.00 0.00 0.00 84 1013.7
20171019062255 54 206 0.0 1.0 0.00 0.00 0.00 83 1013.6
20171019060755 55 211 0.0 1.0 0.00 0.00 0.00 82 1013.6
20171019055255 56 138 0.0 0.0 0.00 0.00 0.00 80 1013.7
20171019053755 56 134 0.0 1.0 0.00 0.00 0.00 79 1013.7
20171019052255 58 134 0.0 1.0 0.00 0.00 0.00 77 1013.4
20171019050755 59 203 0.0 2.0 0.00 0.00 0.00 75 1013.3
20171019045256 60 158 0.0 2.0 0.00 0.00 0.00 73 1013.4
20171019043755 60 207 0.0 2.0 0.00 0.00 0.00 72 1013.3
20171019042256 61 165 0.0 5.0 0.00 0.00 0.00 70 1013.2
20171019040755 61 187 2.0 7.0 0.00 0.00 0.00 69 1013.2
20171019035255 62 155 0.0 4.0 0.00 0.00 0.00 68 1013.2
20171019033756 61 149 2.0 4.0 0.00 0.00 0.00 69 1013.1
20171019032255 60 191 1.0 5.0 0.00 0.00 0.00 68 1013.2
20171019030755 60 155 1.0 2.0 0.00 0.00 0.00 67 1013.2
20171019025255 60 176 0.0 2.0 0.00 0.00 0.00 67 1013.0
20171019023756 60 132 0.0 2.0 0.00 0.00 0.00 68 1012.9
20171019022256 62 136 0.0 1.0 0.00 0.00 0.00 65 1012.9
20171019020756 63 134 0.0 1.0 0.00 0.00 0.00 62 1012.7
20171019015255 65 187 0.0 3.0 0.00 0.00 0.00 59 1012.5
20171019013756 65 219 0.0 4.0 0.00 0.00 0.00 59 1012.4
20171019012256 65 165 0.0 4.0 0.00 0.00 0.00 60 1012.4
20171019010756 65 170 1.0 3.0 0.00 0.00 0.00 62 1012.4
20171019005256 66 168 0.0 3.0 0.00 0.00 0.00 61 1012.2
20171019003756 66 138 1.0 3.0 0.00 0.00 0.00 61 1012.0
20171019002256 66 142 1.0 2.0 0.00 0.00 0.00 62 1011.8
20171019000756 65 153 0.0 2.0 0.00 0.00 0.00 64 1011.8
20171018235256 66 122 0.0 1.0 0.00 0.00 0.00 62 1011.8
20171018233756 67 160 0.0 2.0 0.00 0.00 0.00 62 1011.6
20171018232256 68 120 0.0 0.0 0.00 0.00 0.00 61 1011.5
20171018230756 71 120 0.0 0.0 0.00 0.00 0.00 56 1011.4
20171018225256 72 149 0.0 2.0 0.00 0.00 0.00 52 1011.3
20171018223757 73 134 0.0 3.0 0.00 0.00 0.00 49 1011.4
20171018222256 74 171 1.0 5.0 0.00 0.00 0.00 47 1011.1
20171018220756 76 190 2.0 5.0 0.00 0.00 0.00 44 1011.1
20171018215256 78 149 1.0 5.0 0.00 0.00 0.00 43 1011.1